Home > Weather > Ciudad del Este > Past weeks

Flag for Paraguay Past Weather in Ciudad del Este, Paraguay — Yesterday and Last 2 Weeks

Now
59 °F

Clear.


Feels Like: 58 °F
Forecast: 56 / 80 °F
Wind: 7 mph from Southeast

Location: Foz Do Iguacu Aeroporto

Current Time: Jul 24, 2016 at 12:57:54 AM

Latest Report: Jul 24, 2016 at 12:00 AM


Visibility: 10 mi

Pressure: 30.04 "Hg

Humidity: 94%

Dew Point: 57 °F

Location of Ciudad del EsteLocation

Past Weather in Ciudad del Este — Graph

°F

Ciudad del Este Temperature Yesterday

Maximum temperature yesterday: 77 °F (at 1:00 PM)
Minimum temperature yesterday: 54 °F (at 2:00 AM)
Average temperature yesterday: 63 °F

High & Low Weather Summary for the Past Weeks

 TemperatureHumidityPressure
High88 °F (Jul 11, 2:00 PM)100% (Jul 12, 8:00 PM)30.30 "Hg (Jul 12, 8:00 PM)
Low36 °F (Jul 17, 6:00 AM)33% (Jul 11, 2:00 PM)29.74 "Hg (Jul 11, 2:00 PM)
Average61 °F79%30.01 "Hg
* Reported Jul 8 11:00 PM — Jul 23 11:00 PM, Ciudad del Este, Weather by CustomWeather, © 2016

Note: Actual official high and low records may vary slightly from our data, if they occured in-between our weather recording intervals... More about our weather records

Advertising

Ciudad del Este Weather History for the Previous 24 Hours

Scroll right to see more
 ConditionsComfort  
Time TempWeatherWind HumidityBarometerVisibility
11:00 PM
Sat, Jul 23
55 °FClear.2 mph100%30.04 "Hg10 mi
10:00 PM57 °FClear.6 mph100%30.01 "Hg10 mi
9:00 PM59 °FClear.3 mph94%30.01 "Hg10 mi
8:00 PM64 °FClear.6 mph78%30.01 "Hg10 mi
7:00 PM66 °FClear.3 mph73%30.01 "Hg10 mi
6:00 PM64 °FClear.2 mph78%29.98 "Hg10 mi
5:00 PM70 °FClear.6 mph60%29.98 "Hg10 mi
4:00 PM73 °FSunny.9 mph53%29.98 "Hg10 mi
3:00 PM75 °FSunny.12 mph50%29.98 "Hg10 mi
2:00 PM75 °FSunny.12 mph50%30.01 "Hg10 mi
1:00 PM77 °FSunny.12 mph44%30.01 "Hg10 mi
12:00 PM73 °FSunny.8 mph53%30.04 "Hg10 mi
11:00 AM70 °FSunny.6 mph60%30.09 "Hg10 mi
10:00 AM66 °FSunny.7 mph64%30.09 "Hg10 mi
9:00 AM61 °FSunny.8 mph83%30.09 "Hg10 mi
8:00 AM57 °FSunny.9 mph94%30.09 "Hg10 mi
7:00 AM55 °FSunny.8 mph94%30.07 "Hg10 mi
6:00 AM54 °FSunny.7 mph94%30.04 "Hg10 mi
5:00 AM54 °FClear.7 mph94%30.04 "Hg10 mi
4:00 AM54 °FClear.5 mph100%30.04 "Hg10 mi
3:00 AM54 °FClear.5 mph100%30.04 "Hg10 mi
2:00 AM54 °FClear.6 mph100%30.04 "Hg10 mi
1:00 AM55 °FClear.6 mph94%30.07 "Hg10 mi
12:00 AM57 °FClear.3 mph88%30.07 "Hg10 mi
Weather by CustomWeather, © 2016

See weather overviewHow to use our weather pages